Location: St. Louis
(38.6270°N, 90.1994°W)
Time: 04:19:32
(UTC-06:00)

Tiros 1 - Pass Details

Date: 09 December 2021
Orbit: 630 x 663 km, 48.4° (Epoch: 20 January)

Event Time Altitude Azimuth Distance (km) Brightness Sun altitude
Rises 19:45:15 0° 298° (WNW) 2,928 11.3 -35.5°
Reaches altitude 10° 19:47:55 10° 311° (NW) 2,024 10.1 -36.0°
Enters shadow 19:48:14 12° 314° (NW) 1,924 10.0 -36.0°
